Location: Quebec
(46.8000°N, 71.2500°W)
Time: 19:49:19
(UTC-04:00)

Vanguard 3 - All Passes

Search period start: 19 October 2017 00:00
Search period end: 29 October 2017 00:00
Orbit: 510 x 3263 km, 33.3° (Epoch: 19 October)

Date Brightness Start Highest point End Pass type
(mag) Time Alt. Az. Time Alt. Az. Time Alt. Az.
19 Oct - 02:51:49 10° S 02:58:01 14° SSE 03:03:11 10° SE visible
19 Oct - 05:00:55 10° SW 05:10:49 26° SSE 05:17:24 10° ESE visible
19 Oct - 07:14:44 10° WSW 07:22:46 29° S 07:27:56 10° SE daylight
19 Oct - 09:29:47 10° WSW 09:33:29 16° SSW 09:36:25 10° S daylight
20 Oct - 03:46:09 10° SSW 03:56:31 23° SSE 04:03:52 10° ESE visible
20 Oct - 05:59:00 10° SW 06:09:05 31° S 06:15:25 10° ESE visible
20 Oct - 08:13:51 10° WSW 08:20:30 25° SSW 08:25:00 10° SE daylight
21 Oct - 02:32:27 10° S 02:41:56 18° SSE 02:49:19 10° ESE visible
21 Oct - 04:43:19 10° SW 04:54:59 31° S 05:02:30 10° ESE visible
21 Oct - 06:57:54 10° WSW 07:07:08 32° S 07:12:54 10° SE daylight
21 Oct - 09:13:37 10° WSW 09:17:52 16° SSW 09:21:09 10° S daylight
22 Oct - 01:21:21 10° SSE 01:27:12 12° SE 01:32:23 10° SE visible
22 Oct - 03:28:05 10° SSW 03:40:29 27° SSE 03:49:02 10° ESE visible
22 Oct - 05:41:48 10° WSW 05:53:19 35° S 06:00:22 10° ESE visible
22 Oct - 07:57:17 10° WSW 08:04:51 26° SSW 08:09:51 10° SE daylight
23 Oct - 02:13:48 10° SSW 02:25:42 23° SSE 02:34:45 10° ESE visible
23 Oct - 04:25:46 10° SW 04:39:02 35° S 04:47:26 10° ESE visible
23 Oct - 06:40:59 10° WSW 06:51:24 34° S 06:57:46 10° SE visible
23 Oct - 08:57:20 10° WSW 09:02:09 17° SW 09:05:49 10° S daylight
24 Oct - 01:01:18 10° S 01:10:49 16° SE 01:18:52 10° ESE visible
24 Oct - 03:10:11 10° SW 03:24:19 32° SSE 03:33:58 10° ESE visible
24 Oct - 05:24:35 10° WSW 05:37:26 39° S 05:45:14 10° ESE visible
24 Oct - 07:40:37 10° WSW 07:49:07 27° SSW 07:54:38 10° SSE daylight
25 Oct - 01:55:31 10° SSW 02:09:21 27° SSE 02:19:47 10° ESE visible
25 Oct - 04:08:16 10° SW 04:22:57 39° S 04:32:14 10° ESE visible
25 Oct - 06:24:00 10° WSW 06:35:33 37° SSW 06:42:35 10° SE visible
25 Oct - 08:40:59 10° WSW 08:46:21 17° SW 08:50:23 10° S daylight
26 Oct - 00:42:20 10° S 00:54:17 20° SE 01:04:19 10° ESE visible
26 Oct - 02:52:27 10° SW 03:08:02 36° SSE 03:18:45 10° ESE visible
26 Oct - 05:07:20 10° WSW 05:21:25 42° S 05:30:00 10° ESE visible
26 Oct - 07:23:51 10° WSW 07:33:17 28° SSW 07:39:20 10° SSE daylight
26 Oct - 23:32:16 10° SSE 23:39:20 13° SE 23:45:57 10° ESE night (unlit)
27 Oct - 01:37:31 10° SSW 01:52:51 31° SSE 02:04:33 10° E visible
27 Oct - 03:50:50 10° WSW 04:06:44 43° S 04:16:57 10° ESE visible
27 Oct - 06:06:58 10° WSW 06:19:36 38° SSW 06:27:18 10° SE visible
27 Oct - 08:24:33 10° WSW 08:30:27 17° SW 08:34:52 10° S daylight
28 Oct - 00:23:56 10° S 00:37:37 24° SE 00:49:15 10° E visible
28 Oct - 02:34:52 10° SW 02:51:36 40° SSE 03:03:22 10° ESE visible
28 Oct - 04:50:06 10° WSW 05:05:18 44° S 05:14:41 10° ESE visible
28 Oct - 07:07:02 10° W 07:17:18 28° SSW 07:23:57 10° SSE daylight
28 Oct - 23:12:38 10° SSE 23:22:35 16° SE 23:31:53 10° ESE night (unlit)
